Theta_e
301 293 288 291 295 292 289 290 288 292 295 296 295 295 298 302 303 303 304 305 307 308 312 313 313 313 314 317 317 322 325 328 330 329 330 330 327 328 329 330 330 329 329 334
296 289 294 294 294 293 291 288 289 292 296 296 294 294 297 300 301 303 303 305 306 307 309 310 311 312 313 314 316 317 321 324 328 329 329 329 330 331 331 330 329 329 329 332
293 294 297 292 291 290 290 288 288 288 293 295 293 290 293 297 300 301 303 304 305 305 305 307 308 310 313 313 315 315 319 323 326 327 328 328 328 329 328 330 331 331 330 332
295 298 295 293 290 291 286 293 291 290 289 283 292 282 291 294 293 297 300 301 303 304 305 306 307 309 312 314 314 314 316 318 321 325 325 324 322 321 324 327 330 330 331 331
291 293 293 291 291 293 289 294 292 290 288 287 287 285 288 293 291 293 296 300 302 305 306 307 308 310 311 311 312 313 313 313 314 318 322 322 323 323 325 325 326 327 329 329
294 298 296 294 295 295 296 293 293 292 289 281 286 285 286 290 292 294 298 299 301 303 305 306 308 308 308 310 311 313 313 312 314 316 320 321 321 322 322 323 323 324 325 326
290 292 295 296 291 295 294 289 281 279 280 279 287 285 287 292 293 294 295 298 300 302 304 305 304 305 307 306 307 310 311 309 313 320 319 320 321 322 322 322 323 322 323 323
284 282 291 295 293 290 290 289 282 275 277 280 286 281 286 295 297 298 298 299 301 300 302 303 305 306 305 304 305 306 306 305 306 309 312 321 323 322 323 323 323 323 323 324
285 284 294 295 295 295 290 286 291 283 280 280 284 287 292 295 295 297 298 299 300 301 302 302 301 302 303 303 302 303 303 303 303 303 305 306 307 309 314 317 321 323 324 324
289 284 291 293 296 295 292 294 284 284 276 275 281 283 286 291 293 295 296 298 299 300 299 299 300 300 300 300 300 301 301 300 301 302 303 303 303 304 305 306 306 307 308 310
291 288 286 291 288 288 288 287 288 288 285 279 278 282 293 292 294 295 297 298 300 299 298 299 299 299 298 299 299 299 300 300 300 301 301 302 302 302 302 302 302 303 304 305
291 286 282 286 293 296 293 290 289 284 282 284 284 284 294 295 296 297 298 298 299 298 298 298 298 298 298 298 298 298 298 298 298 298 299 299 299 300 300 300 300 301 301 302
291 284 280 282 287 291 289 291 292 291 289 283 281 284 296 296 295 295 296 298 296 297 297 297 297 298 298 297 296 295 295 294 295 296 297 296 296 296 296 297 298 298 299 300
287 283 282 279 283 286 285 289 291 290 284 284 285 287 292 293 294 296 297 297 297 297 296 297 297 297 296 294 293 293 292 292 292 293 293 293 292 292 293 294 295 296 296 297
284 278 281 285 287 286 286 287 289 287 288 284 287 288 292 295 295 296 297 298 296 296 296 297 296 294 293 291 290 290 290 289 290 290 290 289 289 290 291 291 292 293 294 295
286 280 281 281 286 286 283 285 285 285 288 290 290 288 296 298 298 296 296 296 295 296 296 297 294 292 290 288 287 286 286 286 287 286 286 286 286 286 287 288 289 290 291 292
282 281 277 274 280 283 279 284 286 287 289 287 284 291 296 295 296 295 296 296 296 297 296 294 291 290 286 284 284 283 283 284 283 282 283 283 283 283 283 285 287 287 288 289
281 280 279 274 277 269 284 291 290 288 289 291 290 290 292 293 296 298 295 297 296 297 293 290 288 284 282 281 280 281 281 280 280 280 280 280 280 280 281 282 284 285 287 287
286 282 277 274 274 278 281 286 286 285 285 291 290 292 294 296 293 291 284 286 293 291 287 284 282 280 279 277 277 279 279 278 278 277 277 278 278 278 279 280 281 284 284 285
285 285 279 277 272 270 280 276 278 281 281 277 278 281 281 287 287 293 280 279 277 278 278 278 278 277 276 274 276 276 276 275 274 274 275 276 276 277 277 278 279 281 282 283
278 278 275 276 275 279 271 271 276 279 276 274 274 276 279 282 278 275 276 274 274 274 273 275 275 274 272 272 273 273 273 271 271 272 273 273 274 275 276 277 277 278 279 280
279 278 277 279 276 274 269 274 274 270 272 272 272 273 273 273 272 272 271 270 270 270 270 271 271 271 270 270 270 269 269 269 269 270 270 270 272 273 275 274 275 276 276 278
276 273 278 273 270 268 269 268 269 270 269 268 269 270 271 269 268 268 268 268 267 267 268 268 268 268 268 267 267 266 266 267 267 267 267 269 270 271 272 272 272 273 275 277
268 268 270 269 266 266 267 268 268 269 267 267 267 268 268 267 267 266 266 265 265 265 265 266 266 265 265 265 266 265 265 266 265 265 267 268 268 269 270 271 272 272 274 274
266 267 269 264 264 264 264 265 266 267 267 267 266 266 266 266 265 265 265 264 264 265 264 264 264 263 263 263 264 264 264 264 264 265 265 266 267 267 268 269 270 270 272 272
263 261 266 266 265 265 263 264 265 264 264 265 265 264 264 265 264 265 264 264 264 263 263 263 263 262 263 263 263 263 263 263 262 262 264 265 265 265 266 267 268 271 271 272
Wind_Speed
9 9 16 18 18 10 4 12 8 5 2 7 17 21 19 15 13 14 15 13 13 16 16 14 13 13 13 13 12 11 10 11 9 9 9 10 10 10 9 9 12 13 13 16
9 22 15 11 14 16 10 8 9 3 2 5 8 20 20 18 21 21 21 18 19 18 18 17 18 15 13 13 12 12 12 10 10 9 9 8 7 9 10 10 11 13 16 17
20 4 17 16 13 17 19 20 12 6 1 5 8 20 19 17 20 21 19 20 20 20 20 18 18 13 12 12 11 10 11 12 12 12 9 8 7 7 8 9 11 13 16 16
16 21 11 15 21 15 16 12 13 9 4 8 1 15 17 9 10 11 15 16 18 18 17 17 15 13 11 8 6 8 8 10 10 11 11 14 11 11 10 10 10 10 14 15
14 10 18 19 13 17 7 8 14 15 12 10 17 10 14 8 17 14 11 12 13 14 12 13 11 10 7 5 6 7 8 9 9 10 13 11 13 11 10 9 10 10 10 12
21 5 19 20 14 19 9 9 6 5 7 10 20 17 23 19 17 14 7 10 11 12 11 10 6 6 6 5 6 6 8 8 7 9 11 14 14 12 9 9 8 8 8 9
9 23 4 9 14 16 16 14 6 6 8 13 6 14 25 6 7 12 9 8 11 9 8 8 8 7 5 3 2 2 1 1 3 5 7 10 11 11 12 11 8 9 8 8
16 10 25 16 20 12 23 19 7 10 10 9 9 16 13 8 17 17 21 14 14 7 7 8 7 6 5 5 5 5 5 5 5 5 4 1 5 6 7 9 8 7 7 8
12 17 10 17 15 19 19 17 18 10 3 4 11 15 15 16 10 8 12 13 14 9 6 8 6 5 6 5 4 4 5 5 6 6 5 5 5 4 2 5 6 6 8 8
6 6 8 21 18 17 16 15 13 10 10 13 13 17 16 3 9 13 15 14 10 6 6 7 7 7 5 5 6 6 6 6 6 6 5 5 5 5 5 4 5 5 6 7
19 5 6 13 16 19 11 13 7 7 11 11 13 15 18 17 16 15 12 15 14 9 9 9 8 8 7 6 6 5 5 5 5 5 5 5 6 6 6 5 6 7 7 7
13 5 16 16 9 24 24 21 21 11 16 12 17 17 4 7 13 14 13 7 6 8 10 10 10 10 8 7 5 5 5 5 5 5 5 6 6 6 5 6 7 7 7 7
17 6 8 8 18 11 18 25 23 24 15 20 15 15 15 13 8 9 11 8 8 11 12 11 10 9 8 6 5 5 5 5 5 5 5 5 6 6 6 6 7 8 8 8
6 5 20 15 10 1 20 27 25 24 16 17 17 22 25 13 14 15 7 9 12 13 14 13 11 9 6 5 4 4 5 5 5 5 5 6 7 7 6 6 6 7 8 9
5 5 12 18 23 6 2 20 26 27 26 22 25 26 27 23 20 10 10 10 13 15 15 15 13 9 7 5 4 4 5 6 7 7 5 6 7 7 8 9 8 8 9 8
15 4 8 13 18 26 26 21 22 14 25 25 28 22 24 23 16 11 15 12 15 18 18 14 12 10 7 4 3 4 5 6 6 5 5 5 5 6 7 7 8 7 8 8
7 5 5 7 11 18 20 22 24 24 17 9 15 20 16 22 18 18 14 14 16 18 18 16 13 8 5 4 3 4 3 3 3 5 6 6 7 7 8 9 9 9 9 10
5 6 6 8 11 12 13 16 24 24 23 21 19 21 27 33 30 12 4 12 15 13 14 13 9 7 5 4 4 2 1 2 3 6 8 8 8 8 8 8 8 9 8 8
16 8 5 6 10 14 20 3 4 14 21 17 19 23 24 20 5 5 6 9 3 9 10 10 10 7 6 6 6 4 3 4 9 7 9 9 9 9 9 8 9 9 9 9
15 13 6 6 8 10 5 4 11 6 9 13 11 10 13 11 10 12 8 11 13 12 9 9 10 9 8 9 8 6 7 8 9 9 10 10 10 9 9 9 10 10 10 10
7 6 15 13 11 8 4 12 13 9 1 10 11 11 11 3 3 8 11 13 14 13 13 10 11 11 11 11 10 8 8 9 10 10 11 12 11 11 9 10 10 11 11 11
13 10 7 10 14 14 11 1 3 8 7 8 9 10 10 11 12 12 12 13 13 14 14 13 11 11 11 12 10 10 9 11 11 11 13 13 13 10 9 12 11 11 11 11
5 3 2 1 2 6 9 10 7 9 8 10 10 10 10 10 11 11 11 12 12 11 10 11 10 9 9 11 11 10 11 12 13 12 12 12 13 11 10 10 11 10 9 9
2 3 2 7 6 7 6 7 7 8 8 8 10 12 11 10 11 11 10 10 9 10 10 8 8 8 9 10 9 8 10 12 13 12 10 11 12 12 10 8 7 8 8 9
3 5 6 6 9 9 7 6 5 6 7 9 11 10 9 9 10 9 9 9 8 8 8 8 8 8 9 8 8 8 9 10 12 12 11 11 10 12 11 9 8 9 10 10
3 3 2 3 5 5 5 4 4 6 8 7 7 8 10 9 9 7 7 7 7 8 8 8 8 8 9 10 10 9 9 9 10 11 10 9 10 10 10 10 11 14 17 20
Wind_Direction
197 206 212 205 214 239 277 225 223 190 200 231 241 253 254 238 235 242 243 242 241 242 246 250 251 260 251 239 240 229 218 218 207 207 210 223 227 227 228 229 225 219 221 230
180 231 218 204 209 219 224 237 232 243 226 229 272 271 267 251 237 240 247 242 241 245 247 248 254 253 247 245 238 232 226 218 207 208 208 221 217 225 227 227 227 225 227 231
215 204 192 181 194 212 224 232 234 259 126 243 291 274 256 253 242 233 240 248 247 244 249 251 252 245 248 247 245 239 227 216 214 216 217 225 234 242 234 229 232 227 228 232
238 234 207 205 217 195 222 215 227 220 241 255 295 279 263 249 238 223 229 233 239 241 241 249 252 252 243 251 238 239 234 228 226 217 223 225 227 235 235 234 230 231 225 232
207 190 195 206 207 197 247 170 201 215 231 273 242 263 263 251 259 245 228 220 230 241 240 244 246 251 243 235 241 247 247 243 237 226 224 226 232 243 248 245 242 242 237 227
229 198 199 220 192 190 139 117 136 198 220 239 234 222 268 246 251 243 211 217 228 225 239 248 243 234 227 221 231 232 239 247 247 236 227 230 235 238 246 244 245 244 238 232
208 229 228 201 192 194 188 164 166 203 204 241 221 209 248 268 336 272 222 246 258 256 233 211 223 216 208 193 179 151 193 204 306 254 242 238 242 245 247 250 249 248 246 243
210 210 208 193 206 187 197 186 184 214 212 250 160 231 244 239 250 233 252 265 262 221 242 250 250 229 183 151 134 126 108 93 60 59 54 350 250 248 249 252 257 258 253 255
204 226 182 199 198 191 192 215 213 267 84 272 215 251 281 258 234 234 233 238 230 228 243 226 181 163 149 129 96 90 96 80 56 47 53 55 48 37 348 308 289 276 278 276
204 245 213 202 202 205 192 189 197 216 214 227 238 243 254 165 238 239 240 239 234 217 192 176 157 143 126 114 103 87 76 75 71 65 55 52 45 32 16 7 1 338 320 316
219 234 173 176 201 182 192 199 215 219 226 228 253 247 244 251 244 243 233 235 236 207 190 176 154 137 130 125 112 105 92 74 61 51 45 47 42 33 35 28 11 357 338 335
208 215 232 214 203 219 204 201 193 201 201 233 252 253 167 242 250 247 230 219 231 203 176 167 157 153 155 143 129 113 89 71 46 38 32 31 23 19 24 17 4 352 345 343
201 222 224 218 220 224 232 222 216 228 237 213 217 241 249 238 229 219 227 208 189 178 168 168 165 169 162 153 135 99 62 47 30 30 33 31 23 11 5 4 358 350 343 342
28 285 242 254 243 160 217 216 216 216 228 230 236 251 257 229 233 229 202 197 189 183 181 179 179 173 159 143 125 100 71 34 15 26 29 23 2 355 353 349 357 350 341 342
133 247 277 267 257 219 185 226 215 221 230 233 239 235 241 239 232 236 224 205 194 198 194 191 182 173 164 158 138 89 54 25 4 360 12 7 353 355 352 344 348 344 338 337
169 281 330 265 260 254 251 242 236 266 248 245 242 245 233 251 267 242 223 192 203 210 207 193 177 170 166 152 100 58 36 21 357 347 343 352 348 352 355 343 332 343 334 338
170 185 313 283 351 281 245 230 231 238 225 214 245 243 291 284 273 253 232 207 213 212 195 185 174 162 139 114 61 69 34 28 4 353 340 351 359 353 356 344 340 342 340 329
186 183 144 269 312 276 270 233 231 237 242 229 239 240 241 245 260 267 231 228 220 197 177 161 145 131 104 61 43 16 4 34 60 20 340 348 349 355 345 341 336 331 319 313
215 181 196 227 255 279 280 222 206 207 240 244 244 247 252 254 295 242 35 11 10 128 123 113 100 94 76 35 2 354 8 25 42 9 337 335 341 338 339 340 330 322 324 317
217 210 200 184 236 265 332 35 351 315 251 17 348 334 319 318 232 240 66 64 64 58 62 87 92 83 55 24 0 11 9 16 22 349 327 332 334 330 328 325 323 320 312 307
174 190 209 228 238 239 28 319 310 184 329 1 1 347 332 264 40 72 76 70 64 54 43 43 61 59 41 17 4 17 8 7 347 328 340 332 328 325 325 325 323 317 318 312
185 185 172 224 216 230 356 180 254 359 42 20 24 12 48 64 70 68 62 56 51 50 39 31 41 43 32 20 14 7 3 343 333 341 354 328 326 326 328 327 321 322 323 312
215 324 187 33 89 71 40 66 38 26 43 26 26 29 46 64 59 58 57 55 51 47 40 34 31 30 27 15 16 359 344 339 337 349 350 319 323 319 329 322 321 319 314 306
96 1 102 152 125 102 77 66 54 48 63 49 44 40 45 55 54 51 45 38 40 36 33 25 30 22 12 4 359 356 340 345 337 338 326 327 324 319 319 318 310 310 303 310
8 304 113 94 133 130 87 64 58 65 65 70 58 48 48 58 55 53 47 32 31 29 22 19 12 2 354 348 340 343 344 341 332 331 328 327 313 315 315 309 306 302 300 302
293 97 247 96 104 72 81 58 52 76 64 51 64 62 44 45 48 43 47 30 20 16 10 7 358 344 337 340 336 332 343 335 322 322 328 319 312 313 309 313 308 298 294 296